Change the Weather History Date:

Saturday, August 31, 2013

  Actual Average Record
Temperature  
Mean Temperature 74 °F 64 °F  
Max Temperature 79 °F 73 °F 92 °F (1953)
Min Temperature 68 °F 55 °F 33 °F (1965)
Degree Days  
Heating Degree Days 0 2  
Month to date heating degree days 53 39  
Since 1 June heating degree days 140 163  
Since 1 July heating degree days 64 63  
Cooling Degree Days 9 2  
Month to date cooling degree days 80 94  
Year to date cooling degree days 419 296  
Since 1 June cooling degree days 387 277  
Growing Degree Days 24 (Base 50)    
Moisture  
Dew Point 68 °F    
Average Humidity 81    
Maximum Humidity 93    
Minimum Humidity 69    
Precipitation  
Precipitation T in 0.11 in 4.25 in (1940)
Month to date precipitation 5.64 4.46  
Year to date precipitation 35.65 30.98  
Sea Level Pressure  
Sea Level Pressure 29.88 in    
Wind  
Wind Speed 7 mph (WSW)    
Max Wind Speed 14 mph    
Max Gust Speed 22 mph    
Visibility 6 miles    
Events Rain    
T = Trace of Precipitation, MM = Missing Value Source: NWS Daily Summary

Daily Weather History Graph

Daily Weather History Graph

Search for Another Location

Airport or City:

Trip Planner

Search our weather history database for the weather conditions in past years. The results will help you decide how hot, cold, wet, or windy it might be!

Date:

Astronomy

Aug. 31, 2013 Rise Set
Actual Time 6:27 AM EDT 7:35 PM EDT
Civil Twilight 5:58 AM EDT 8:03 PM EDT
Nautical Twilight 5:25 AM EDT 8:37 PM EDT
Astronomical Twilight 4:49 AM EDT 9:12 PM EDT
Moon 1:52 AM EDT (8/31) 4:33 PM EDT (8/31)
Length of Visible Light 14h 04m
Length of Day
13h 08m
Waning Crescent, 21% of the Moon is Illuminated
Aug 31
Waning Crescent
Sep 5
New
Sep 12
First Quarter
Sep 19
Full
Sep 26
Last Quarter

Hourly Weather History & Observations

Time (EDT) Temp. Dew Point Humidity Pressure Visibility Wind Dir Wind Speed Gust Speed Precip Events Conditions
12:53 AM 70.0 °F 66.9 °F 90% 29.89 in 6.0 mi SW 9.2 mph - N/A   Scattered Clouds
1:07 AM 69.8 °F 66.2 °F 88% 29.93 in 6.0 mi WSW 10.4 mph - N/A   Mostly Cloudy
2:53 AM 70.0 °F 66.0 °F 87% 29.88 in 6.0 mi WSW 11.5 mph 21.9 mph N/A   Mostly Cloudy
3:09 AM 69.8 °F 66.2 °F 88% 29.91 in 6.0 mi WSW 9.2 mph - 0.00 in Rain Light Rain
3:51 AM 69.8 °F 66.2 °F 88% 29.91 in 5.0 mi West 8.1 mph - 0.00 in   Mostly Cloudy
4:53 AM 69.1 °F 66.0 °F 90% 29.86 in 5.0 mi WSW 6.9 mph - N/A   Overcast
5:53 AM 69.1 °F 66.0 °F 90% 29.87 in 5.0 mi West 9.2 mph - N/A   Overcast
6:53 AM 68.0 °F 66.0 °F 93% 29.87 in 3.0 mi West 8.1 mph - N/A   Overcast
8:53 AM 70.0 °F 66.0 °F 87% 29.88 in 4.0 mi WSW 4.6 mph - N/A   Mostly Cloudy
9:29 AM 69.8 °F 66.2 °F 88% 29.92 in 4.0 mi West 4.6 mph - N/A   Scattered Clouds
9:53 AM 70.0 °F 66.9 °F 90% 29.89 in 4.0 mi West 4.6 mph - N/A   Mostly Cloudy
11:53 AM 75.0 °F 66.9 °F 76% 29.88 in 7.0 mi West 8.1 mph - N/A   Clear
12:53 PM 77.0 °F 68.0 °F 74% 29.87 in 7.0 mi WSW 5.8 mph - N/A   Clear
1:53 PM 77.0 °F 70.0 °F 79% 29.86 in 7.0 mi ESE 4.6 mph - N/A   Mostly Cloudy
2:53 PM 79.0 °F 69.1 °F 72% 29.84 in 8.0 mi SW 9.2 mph - N/A   Mostly Cloudy
3:53 PM 77.0 °F 69.1 °F 76% 29.83 in 7.0 mi SW 9.2 mph - N/A   Scattered Clouds
5:53 PM 77.0 °F 66.9 °F 71% 29.85 in 7.0 mi SSW 6.9 mph - N/A   Clear
6:53 PM 75.9 °F 68.0 °F 76% 29.85 in 7.0 mi SW 5.8 mph - N/A   Clear
8:53 PM 73.0 °F 69.1 °F 87% 29.84 in 5.0 mi SSW 6.9 mph - N/A   Clear
9:24 PM 73.4 °F 69.8 °F 88% 29.90 in 5.0 mi SW 8.1 mph - N/A   Partly Cloudy
9:53 PM 73.0 °F 70.0 °F 90% 29.88 in 5.0 mi WSW 6.9 mph - N/A   Scattered Clouds
10:26 PM 73.4 °F 69.8 °F 88% 29.91 in 6.0 mi WSW 5.8 mph - N/A   Mostly Cloudy
10:53 PM 73.0 °F 70.0 °F 90% 29.87 in 6.0 mi WSW 8.1 mph - N/A   Overcast
11:53 PM 72.0 °F 70.0 °F 93% 29.87 in 5.0 mi NW 6.9 mph - N/A   Scattered Clouds